Year,Month,Day,Hour,Minute,Value (Times are PST for temperature in C)
2017,07,15,00,00,18.20
2017,07,15,00,01,18.20
2017,07,15,00,02,18.20
2017,07,15,00,03,18.20
2017,07,15,00,04,18.20
2017,07,15,00,05,18.20
2017,07,15,00,06,18.20
2017,07,15,00,07,18.20
2017,07,15,00,08,18.20
2017,07,15,00,09,18.20
2017,07,15,00,10,18.20
2017,07,15,00,11,18.20
2017,07,15,00,12,18.20
2017,07,15,00,13,18.20
2017,07,15,00,14,18.20
2017,07,15,00,15,18.20
2017,07,15,00,16,18.20
2017,07,15,00,17,18.20
2017,07,15,00,18,18.30
2017,07,15,00,19,18.30
2017,07,15,00,20,18.30
2017,07,15,00,21,18.30
2017,07,15,00,22,18.30
2017,07,15,00,23,18.30
2017,07,15,00,24,18.30
2017,07,15,00,25,18.30
2017,07,15,00,26,18.30
2017,07,15,00,27,18.30
2017,07,15,00,28,18.30
2017,07,15,00,29,18.30
2017,07,15,00,30,18.30
2017,07,15,00,31,18.30
2017,07,15,00,32,18.30
2017,07,15,00,33,18.30
2017,07,15,00,34,18.30
2017,07,15,00,35,18.30
2017,07,15,00,36,18.30
2017,07,15,00,37,18.30
2017,07,15,00,38,18.30
2017,07,15,00,39,18.30
2017,07,15,00,40,18.30
2017,07,15,00,41,18.30
2017,07,15,00,42,18.30
2017,07,15,00,43,18.30
2017,07,15,00,44,18.30
2017,07,15,00,45,18.30
2017,07,15,00,46,18.30
2017,07,15,00,47,18.30
2017,07,15,00,48,18.30
2017,07,15,00,49,18.30
2017,07,15,00,50,18.30
2017,07,15,00,51,18.30
2017,07,15,00,52,18.30
2017,07,15,00,53,18.30
2017,07,15,00,54,18.30
2017,07,15,00,55,18.30
2017,07,15,00,56,18.30
2017,07,15,00,57,18.30
2017,07,15,00,58,18.30
2017,07,15,00,59,18.30
2017,07,15,01,00,18.30
2017,07,15,01,01,18.40
2017,07,15,01,02,18.40
2017,07,15,01,03,18.40
2017,07,15,01,04,18.30
2017,07,15,01,05,18.30
2017,07,15,01,06,18.30
2017,07,15,01,07,18.30
2017,07,15,01,08,18.40
2017,07,15,01,09,18.30
2017,07,15,01,10,18.30
2017,07,15,01,11,18.40
2017,07,15,01,12,18.40
2017,07,15,01,13,18.40
2017,07,15,01,14,18.40
2017,07,15,01,15,18.50
2017,07,15,01,16,18.40
2017,07,15,01,17,18.40
2017,07,15,01,18,18.40
2017,07,15,01,19,18.40
2017,07,15,01,20,18.40
2017,07,15,01,21,18.40
2017,07,15,01,22,18.40
2017,07,15,01,23,18.40
2017,07,15,01,24,18.40
2017,07,15,01,25,18.40
2017,07,15,01,26,18.40
2017,07,15,01,27,18.40
2017,07,15,01,28,18.40
2017,07,15,01,29,18.40
2017,07,15,01,30,18.40
2017,07,15,01,31,18.40
2017,07,15,01,32,18.40
2017,07,15,01,33,18.30
2017,07,15,01,34,18.30
2017,07,15,01,35,18.30
2017,07,15,01,36,18.30
2017,07,15,01,37,18.30
2017,07,15,01,38,18.20
2017,07,15,01,39,18.20
2017,07,15,01,40,18.20
2017,07,15,01,41,18.20
2017,07,15,01,42,18.20
2017,07,15,01,43,18.30
2017,07,15,01,44,18.20
2017,07,15,01,45,18.20
2017,07,15,01,46,18.20
2017,07,15,01,47,18.20
2017,07,15,01,48,18.20
2017,07,15,01,49,18.20
2017,07,15,01,50,18.20
2017,07,15,01,51,18.20
2017,07,15,01,52,18.20
2017,07,15,01,53,18.20
2017,07,15,01,54,18.20
2017,07,15,01,55,18.10
2017,07,15,01,56,18.10
2017,07,15,01,57,18.10
2017,07,15,01,58,18.10
2017,07,15,01,59,18.10
2017,07,15,02,00,18.00
2017,07,15,02,01,18.00
2017,07,15,02,02,18.00
2017,07,15,02,03,18.00
2017,07,15,02,04,17.90
2017,07,15,02,05,17.90
2017,07,15,02,06,17.90
2017,07,15,02,07,17.90
2017,07,15,02,08,17.90
2017,07,15,02,09,17.90
2017,07,15,02,10,17.80
2017,07,15,02,11,17.80
2017,07,15,02,12,17.80
2017,07,15,02,13,17.80
2017,07,15,02,14,17.80
2017,07,15,02,15,17.80
2017,07,15,02,16,17.80
2017,07,15,02,17,17.70
2017,07,15,02,18,17.70
2017,07,15,02,19,17.70
2017,07,15,02,20,17.70
2017,07,15,02,21,17.70
2017,07,15,02,22,17.60
2017,07,15,02,23,17.60
2017,07,15,02,24,17.60
2017,07,15,02,25,17.60
2017,07,15,02,26,17.60
2017,07,15,02,27,17.60
2017,07,15,02,28,17.60
2017,07,15,02,29,17.50
2017,07,15,02,30,17.50
2017,07,15,02,31,17.50
2017,07,15,02,32,17.50
2017,07,15,02,33,17.50
2017,07,15,02,34,17.40
2017,07,15,02,35,17.40
2017,07,15,02,36,17.40
2017,07,15,02,37,17.40
2017,07,15,02,38,17.40
2017,07,15,02,39,17.30
2017,07,15,02,40,17.30
2017,07,15,02,41,17.30
2017,07,15,02,42,17.30
2017,07,15,02,43,17.30
2017,07,15,02,44,17.30
2017,07,15,02,45,17.30
2017,07,15,02,46,17.30
2017,07,15,02,47,17.30
2017,07,15,02,48,17.20
2017,07,15,02,49,17.20
2017,07,15,02,50,17.20
2017,07,15,02,51,17.20
2017,07,15,02,52,17.20
2017,07,15,02,53,17.20
2017,07,15,02,54,17.10
2017,07,15,02,55,17.10
2017,07,15,02,56,17.10
2017,07,15,02,57,17.10
2017,07,15,02,58,17.00
2017,07,15,02,59,17.00
2017,07,15,03,00,16.90
2017,07,15,03,01,16.90
2017,07,15,03,02,16.90
2017,07,15,03,03,16.80
2017,07,15,03,04,16.80
2017,07,15,03,05,16.80
2017,07,15,03,06,16.80
2017,07,15,03,07,16.70
2017,07,15,03,08,16.70
2017,07,15,03,09,16.70
2017,07,15,03,10,16.70
2017,07,15,03,11,16.60
2017,07,15,03,12,16.60
2017,07,15,03,13,16.50
2017,07,15,03,14,16.50
2017,07,15,03,15,16.40
2017,07,15,03,16,16.40
2017,07,15,03,17,16.40
2017,07,15,03,18,16.30
2017,07,15,03,19,16.30
2017,07,15,03,20,16.20
2017,07,15,03,21,16.20
2017,07,15,03,22,16.20
2017,07,15,03,23,16.10
2017,07,15,03,24,16.10
2017,07,15,03,25,16.00
2017,07,15,03,26,16.00
2017,07,15,03,27,15.90
2017,07,15,03,28,15.90
2017,07,15,03,29,15.90
2017,07,15,03,30,15.90
2017,07,15,03,31,15.80
2017,07,15,03,32,15.80
2017,07,15,03,33,15.80
2017,07,15,03,34,15.80
2017,07,15,03,35,15.70
2017,07,15,03,36,15.70
2017,07,15,03,37,15.70
2017,07,15,03,38,15.60
2017,07,15,03,39,15.60
2017,07,15,03,40,15.60
2017,07,15,03,41,15.50
2017,07,15,03,42,15.40
2017,07,15,03,43,15.40
2017,07,15,03,44,15.30
2017,07,15,03,45,15.30
2017,07,15,03,46,15.20
2017,07,15,03,47,15.20
2017,07,15,03,48,15.20
2017,07,15,03,49,15.20
2017,07,15,03,50,15.20
2017,07,15,03,51,15.10
2017,07,15,03,52,15.10
2017,07,15,03,53,15.10
2017,07,15,03,54,15.10
2017,07,15,03,55,15.20
2017,07,15,03,56,15.20
2017,07,15,03,57,15.20
2017,07,15,03,58,15.20
2017,07,15,03,59,15.30
2017,07,15,04,00,15.30
2017,07,15,04,01,15.30
2017,07,15,04,02,15.30
2017,07,15,04,03,15.30
2017,07,15,04,04,15.30
2017,07,15,04,05,15.30
2017,07,15,04,06,15.20
2017,07,15,04,07,15.20
2017,07,15,04,08,15.20
2017,07,15,04,09,15.20
2017,07,15,04,10,15.20
2017,07,15,04,11,15.10
2017,07,15,04,12,15.10
2017,07,15,04,13,15.10
2017,07,15,04,14,15.10
2017,07,15,04,15,15.10
2017,07,15,04,16,15.10
2017,07,15,04,17,15.10
2017,07,15,04,18,15.00
2017,07,15,04,19,15.00
2017,07,15,04,20,15.00
2017,07,15,04,21,15.00
2017,07,15,04,22,15.00
2017,07,15,04,23,14.90
2017,07,15,04,24,14.90
2017,07,15,04,25,14.90
2017,07,15,04,26,14.90
2017,07,15,04,27,14.90
2017,07,15,04,28,14.90
2017,07,15,04,29,14.90
2017,07,15,04,30,14.90
2017,07,15,04,31,14.90
2017,07,15,04,32,14.90
2017,07,15,04,33,15.00
2017,07,15,04,34,15.00
2017,07,15,04,35,15.00
2017,07,15,04,36,15.00
2017,07,15,04,37,15.00
2017,07,15,04,38,15.00
2017,07,15,04,39,15.00
2017,07,15,04,40,15.00
2017,07,15,04,41,15.00
2017,07,15,04,42,15.00
2017,07,15,04,43,15.00
2017,07,15,04,44,15.00
2017,07,15,04,45,15.00
2017,07,15,04,46,15.00
2017,07,15,04,47,15.00
2017,07,15,04,48,15.00
2017,07,15,04,49,15.00
2017,07,15,04,50,15.00
2017,07,15,04,51,14.90
2017,07,15,04,52,14.90
2017,07,15,04,53,14.90
2017,07,15,04,54,14.90
2017,07,15,04,55,14.90
2017,07,15,04,56,14.80
2017,07,15,04,57,14.80
2017,07,15,04,58,14.80
2017,07,15,04,59,14.80
2017,07,15,05,00,14.70
2017,07,15,05,01,14.70
2017,07,15,05,02,14.70
2017,07,15,05,03,14.60
2017,07,15,05,04,14.60
2017,07,15,05,05,14.60
2017,07,15,05,06,14.50
2017,07,15,05,07,14.50
2017,07,15,05,08,14.50
2017,07,15,05,09,14.40
2017,07,15,05,10,14.40
2017,07,15,05,11,14.40
2017,07,15,05,12,14.40
2017,07,15,05,13,14.40
2017,07,15,05,14,14.30
2017,07,15,05,15,14.30
2017,07,15,05,16,14.30
2017,07,15,05,17,14.30
2017,07,15,05,18,14.30
2017,07,15,05,19,14.30
2017,07,15,05,20,14.30
2017,07,15,05,21,14.20
2017,07,15,05,22,14.20
2017,07,15,05,23,14.20
2017,07,15,05,24,14.20
2017,07,15,05,25,14.20
2017,07,15,05,26,14.10
2017,07,15,05,27,14.10
2017,07,15,05,28,14.10
2017,07,15,05,29,14.10
2017,07,15,05,30,14.10
2017,07,15,05,31,14.10
2017,07,15,05,32,14.00
2017,07,15,05,33,14.00
2017,07,15,05,34,14.00
2017,07,15,05,35,14.00
2017,07,15,05,36,13.90
2017,07,15,05,37,13.90
2017,07,15,05,38,13.90
2017,07,15,05,39,13.90
2017,07,15,05,40,13.90
2017,07,15,05,41,13.90
2017,07,15,05,42,13.90
2017,07,15,05,43,13.90
2017,07,15,05,44,13.90
2017,07,15,05,45,13.90
2017,07,15,05,46,13.90
2017,07,15,05,47,13.90
2017,07,15,05,48,14.00
2017,07,15,05,49,14.00
2017,07,15,05,50,14.00
2017,07,15,05,51,14.00
2017,07,15,05,52,14.00
2017,07,15,05,53,14.10
2017,07,15,05,54,14.10
2017,07,15,05,55,14.10
2017,07,15,05,56,14.10
2017,07,15,05,57,14.20
2017,07,15,05,58,14.20
2017,07,15,05,59,14.20
2017,07,15,06,00,14.30
2017,07,15,06,01,14.30
2017,07,15,06,02,14.30
2017,07,15,06,03,14.40
2017,07,15,06,05,14.40
2017,07,15,06,06,14.40
2017,07,15,06,07,14.50
2017,07,15,06,08,14.50
2017,07,15,06,09,14.60
2017,07,15,06,10,14.60
2017,07,15,06,11,14.60
2017,07,15,06,12,14.70
2017,07,15,06,13,14.70
2017,07,15,06,14,14.80
2017,07,15,06,15,14.80
2017,07,15,06,16,14.80
2017,07,15,06,17,14.80
2017,07,15,06,18,14.80
2017,07,15,06,19,14.80
2017,07,15,06,20,14.80
2017,07,15,06,21,14.80
2017,07,15,06,22,14.80
2017,07,15,06,23,14.80
2017,07,15,06,24,14.80
2017,07,15,06,25,14.80
2017,07,15,06,26,14.80
2017,07,15,06,27,14.80
2017,07,15,06,28,14.80
2017,07,15,06,29,14.80
2017,07,15,06,30,14.80
2017,07,15,06,31,14.80
2017,07,15,06,32,14.80
2017,07,15,06,33,14.70
2017,07,15,06,34,14.70
2017,07,15,06,35,14.70
2017,07,15,06,36,14.70
2017,07,15,06,37,14.70
2017,07,15,06,38,14.70
2017,07,15,06,39,14.70
2017,07,15,06,40,14.70
2017,07,15,06,41,14.60
2017,07,15,06,42,14.60
2017,07,15,06,43,14.60
2017,07,15,06,44,14.60
2017,07,15,06,45,14.60
2017,07,15,06,46,14.60
2017,07,15,06,47,14.60
2017,07,15,06,48,14.60
2017,07,15,06,49,14.60
2017,07,15,06,50,14.60
2017,07,15,06,51,14.60
2017,07,15,06,52,14.60
2017,07,15,06,53,14.60
2017,07,15,06,54,14.70
2017,07,15,06,55,14.70
2017,07,15,06,56,14.70
2017,07,15,06,57,14.70
2017,07,15,06,58,14.80
2017,07,15,06,59,14.80
2017,07,15,07,00,14.80
2017,07,15,07,01,14.80
2017,07,15,07,02,14.90
2017,07,15,07,03,14.90
2017,07,15,07,04,14.90
2017,07,15,07,05,15.00
2017,07,15,07,06,15.00
2017,07,15,07,07,15.10
2017,07,15,07,08,15.10
2017,07,15,07,09,15.10
2017,07,15,07,10,15.20
2017,07,15,07,11,15.20
2017,07,15,07,12,15.20
2017,07,15,07,13,15.30
2017,07,15,07,14,15.30
2017,07,15,07,15,15.30
2017,07,15,07,16,15.40
2017,07,15,07,17,15.40
2017,07,15,07,18,15.40
2017,07,15,07,19,15.50
2017,07,15,07,20,15.50
2017,07,15,07,21,15.50
2017,07,15,07,22,15.60
2017,07,15,07,23,15.60
2017,07,15,07,24,15.70
2017,07,15,07,25,15.70
2017,07,15,07,26,15.70
2017,07,15,07,27,15.80
2017,07,15,07,28,15.80
2017,07,15,07,29,15.90
2017,07,15,07,30,15.90
2017,07,15,07,31,15.90
2017,07,15,07,32,16.00
2017,07,15,07,33,16.00
2017,07,15,07,34,16.10
2017,07,15,07,35,16.10
2017,07,15,07,36,16.20
2017,07,15,07,37,16.20
2017,07,15,07,38,16.20
2017,07,15,07,39,16.30
2017,07,15,07,40,16.30
2017,07,15,07,41,16.30
2017,07,15,07,42,16.40
2017,07,15,07,43,16.40
2017,07,15,07,44,16.50
2017,07,15,07,45,16.60
2017,07,15,07,46,16.60
2017,07,15,07,47,16.70
2017,07,15,07,48,16.80
2017,07,15,07,49,16.90
2017,07,15,07,50,17.00
2017,07,15,07,51,17.10
2017,07,15,07,52,17.10
2017,07,15,07,53,17.20
2017,07,15,07,54,17.30
2017,07,15,07,55,17.40
2017,07,15,07,56,17.40
2017,07,15,07,57,17.50
2017,07,15,07,58,17.60
2017,07,15,07,59,17.70
2017,07,15,08,00,17.80
2017,07,15,08,01,17.90
2017,07,15,08,02,18.00
2017,07,15,08,03,18.00
2017,07,15,08,04,18.10
2017,07,15,08,05,18.10
2017,07,15,08,06,18.20
2017,07,15,08,07,18.20
2017,07,15,08,08,18.30
2017,07,15,08,09,18.20
2017,07,15,08,10,18.10
2017,07,15,08,11,18.00
2017,07,15,08,12,18.00
2017,07,15,08,13,17.90
2017,07,15,08,14,17.90
2017,07,15,08,15,17.90
2017,07,15,08,16,17.90
2017,07,15,08,17,17.90
2017,07,15,08,18,18.00
2017,07,15,08,19,18.00
2017,07,15,08,20,18.10
2017,07,15,08,21,18.10
2017,07,15,08,22,18.10
2017,07,15,08,23,18.10
2017,07,15,08,24,18.10
2017,07,15,08,25,18.10
2017,07,15,08,26,18.20
2017,07,15,08,27,18.20
2017,07,15,08,28,18.30
2017,07,15,08,29,18.30
2017,07,15,08,30,18.40
2017,07,15,08,31,18.40
2017,07,15,08,32,18.50
2017,07,15,08,33,18.40
2017,07,15,08,34,18.30
2017,07,15,08,35,18.30
2017,07,15,08,36,18.20
2017,07,15,08,37,18.20
2017,07,15,08,38,18.30
2017,07,15,08,39,18.30
2017,07,15,08,40,18.30
2017,07,15,08,41,18.30
2017,07,15,08,42,18.30
2017,07,15,08,43,18.30
2017,07,15,08,44,18.30
2017,07,15,08,45,18.30
2017,07,15,08,46,18.30
2017,07,15,08,47,18.30
2017,07,15,08,48,18.20
2017,07,15,08,49,18.20
2017,07,15,08,50,18.20
2017,07,15,08,51,18.20
2017,07,15,08,52,18.30
2017,07,15,08,53,18.40
2017,07,15,08,54,18.40
2017,07,15,08,55,18.50
2017,07,15,08,56,18.50
2017,07,15,08,57,18.50
2017,07,15,08,58,18.50
2017,07,15,08,59,18.60
2017,07,15,09,00,18.60
2017,07,15,09,01,18.60
2017,07,15,09,02,18.60
2017,07,15,09,03,18.60
2017,07,15,09,04,18.60
2017,07,15,09,05,18.60
2017,07,15,09,06,18.70
2017,07,15,09,07,18.70
2017,07,15,09,08,18.60
2017,07,15,09,09,18.70
2017,07,15,09,10,18.60
2017,07,15,09,11,18.60
2017,07,15,09,12,18.60
2017,07,15,09,13,18.50
2017,07,15,09,14,18.50
2017,07,15,09,15,18.40
2017,07,15,09,16,18.40
2017,07,15,09,17,18.40
2017,07,15,09,18,18.40
2017,07,15,09,19,18.30
2017,07,15,09,20,18.20
2017,07,15,09,21,18.10
2017,07,15,09,22,18.00
2017,07,15,09,23,18.00
2017,07,15,09,24,18.00
2017,07,15,09,25,18.00
2017,07,15,09,26,18.00
2017,07,15,09,27,18.10
2017,07,15,09,28,18.10
2017,07,15,09,29,18.10
2017,07,15,09,30,18.20
2017,07,15,09,31,18.20
2017,07,15,09,32,18.30
2017,07,15,09,33,18.40
2017,07,15,09,34,18.50
2017,07,15,09,35,18.60
2017,07,15,09,36,18.60
2017,07,15,09,37,18.70
2017,07,15,09,38,18.80
2017,07,15,09,39,18.80
2017,07,15,09,40,18.90
2017,07,15,09,41,19.00
2017,07,15,09,42,19.00
2017,07,15,09,43,19.10
2017,07,15,09,44,19.20
2017,07,15,09,45,19.30
2017,07,15,09,46,19.30
2017,07,15,09,47,19.40
2017,07,15,09,48,19.50
2017,07,15,09,49,19.60
2017,07,15,09,50,19.70
2017,07,15,09,51,19.80
2017,07,15,09,52,19.80
2017,07,15,09,53,19.80
2017,07,15,09,54,19.80
2017,07,15,09,55,19.90
2017,07,15,09,56,19.80
2017,07,15,09,57,19.80
2017,07,15,09,58,19.80
2017,07,15,09,59,19.70
2017,07,15,10,00,19.70
2017,07,15,10,01,19.70
2017,07,15,10,02,19.70
2017,07,15,10,03,19.60
2017,07,15,10,04,19.70
2017,07,15,10,05,19.70
2017,07,15,10,06,19.70
2017,07,15,10,07,19.80
2017,07,15,10,08,19.80
2017,07,15,10,09,19.80
2017,07,15,10,10,19.90
2017,07,15,10,11,19.90
2017,07,15,10,12,20.00
2017,07,15,10,13,20.10
2017,07,15,10,14,20.20
2017,07,15,10,15,20.30
2017,07,15,10,16,20.40
2017,07,15,10,17,20.40
2017,07,15,10,18,20.40
2017,07,15,10,19,20.40
2017,07,15,10,20,20.40
2017,07,15,10,21,20.40
2017,07,15,10,22,20.40
2017,07,15,10,23,20.40
2017,07,15,10,24,20.50
2017,07,15,10,25,20.50
2017,07,15,10,26,20.60
2017,07,15,10,27,20.60
2017,07,15,10,28,20.60
2017,07,15,10,29,20.70
2017,07,15,10,30,20.70
2017,07,15,10,31,20.80
2017,07,15,10,32,20.90
2017,07,15,10,33,21.00
2017,07,15,10,34,21.20
2017,07,15,10,35,21.20
2017,07,15,10,36,21.20
2017,07,15,10,37,21.10
2017,07,15,10,38,21.00
2017,07,15,10,39,20.90
2017,07,15,10,40,20.80
2017,07,15,10,41,20.80
2017,07,15,10,42,20.80
2017,07,15,10,43,20.80
2017,07,15,10,44,20.80
2017,07,15,10,45,20.80
2017,07,15,10,46,20.80
2017,07,15,10,47,20.80
2017,07,15,10,48,20.80
2017,07,15,10,49,20.80
2017,07,15,10,50,20.80
2017,07,15,10,51,20.70
2017,07,15,10,52,20.70
2017,07,15,10,53,20.80
2017,07,15,10,54,20.80
2017,07,15,10,55,20.80
2017,07,15,10,56,20.90
2017,07,15,10,57,20.80
2017,07,15,10,58,20.80
2017,07,15,10,59,20.80
2017,07,15,11,00,20.80
2017,07,15,11,01,20.80
2017,07,15,11,02,20.80
2017,07,15,11,03,20.80
2017,07,15,11,04,20.90
2017,07,15,11,05,21.00
2017,07,15,11,06,21.00
2017,07,15,11,07,21.10
2017,07,15,11,08,21.00
2017,07,15,11,09,21.10
2017,07,15,11,10,21.10
2017,07,15,11,11,21.20
2017,07,15,11,12,21.20
2017,07,15,11,13,21.20
2017,07,15,11,14,21.20
2017,07,15,11,15,21.20
2017,07,15,11,16,21.20
2017,07,15,11,17,21.20
2017,07,15,11,18,21.30
2017,07,15,11,19,21.30
2017,07,15,11,20,21.40
2017,07,15,11,21,21.40
2017,07,15,11,22,21.50
2017,07,15,11,23,21.60
2017,07,15,11,24,21.60
2017,07,15,11,25,21.70
2017,07,15,11,26,21.70
2017,07,15,11,27,21.70
2017,07,15,11,28,21.70
2017,07,15,11,29,21.80
2017,07,15,11,30,21.90
2017,07,15,11,31,21.90
2017,07,15,11,32,21.90
2017,07,15,11,33,21.80
2017,07,15,11,34,21.70
2017,07,15,11,35,21.70
2017,07,15,11,36,21.60
2017,07,15,11,37,21.60
2017,07,15,11,38,21.50
2017,07,15,11,39,21.50
2017,07,15,11,40,21.40
2017,07,15,11,41,21.40
2017,07,15,11,42,21.40
2017,07,15,11,43,21.30
2017,07,15,11,44,21.30
2017,07,15,11,45,21.30
2017,07,15,11,46,21.30
2017,07,15,11,47,21.40
2017,07,15,11,48,21.40
2017,07,15,11,49,21.30
2017,07,15,11,50,21.30
2017,07,15,11,51,21.30
2017,07,15,11,52,21.30
2017,07,15,11,53,21.30
2017,07,15,11,54,21.30
2017,07,15,11,55,21.40
2017,07,15,11,56,21.50
2017,07,15,11,57,21.50
2017,07,15,11,58,21.40
2017,07,15,11,59,21.50
2017,07,15,12,00,21.50
2017,07,15,12,01,21.60
2017,07,15,12,02,21.60
2017,07,15,12,03,21.60
2017,07,15,12,04,21.70
2017,07,15,12,05,21.80
2017,07,15,12,06,21.80
2017,07,15,12,07,21.70
2017,07,15,12,08,21.70
2017,07,15,12,09,21.70
2017,07,15,12,10,21.70
2017,07,15,12,11,21.70
2017,07,15,12,12,21.70
2017,07,15,12,13,21.70
2017,07,15,12,14,21.60
2017,07,15,12,15,21.60
2017,07,15,12,16,21.60
2017,07,15,12,17,21.60
2017,07,15,12,18,21.50
2017,07,15,12,19,21.50
2017,07,15,12,20,21.50
2017,07,15,12,21,21.60
2017,07,15,12,22,21.60
2017,07,15,12,23,21.60
2017,07,15,12,24,21.60
2017,07,15,12,25,21.50
2017,07,15,12,26,21.50
2017,07,15,12,27,21.60
2017,07,15,12,28,21.60
2017,07,15,12,29,21.50
2017,07,15,12,30,21.50
2017,07,15,12,31,21.50
2017,07,15,12,32,21.60
2017,07,15,12,33,21.60
2017,07,15,12,34,21.60
2017,07,15,12,35,21.70
2017,07,15,12,36,21.70
2017,07,15,12,37,21.70
2017,07,15,12,38,21.70
2017,07,15,12,39,21.70
2017,07,15,12,40,21.70
2017,07,15,12,41,21.70
2017,07,15,12,42,21.70
2017,07,15,12,43,21.70
2017,07,15,12,44,21.70
2017,07,15,12,45,21.70
2017,07,15,12,46,21.70
2017,07,15,12,47,21.70
2017,07,15,12,48,21.70
2017,07,15,12,49,21.60
2017,07,15,12,50,21.60
2017,07,15,12,51,21.60
2017,07,15,12,52,21.60
2017,07,15,12,53,21.70
2017,07,15,12,54,21.70
2017,07,15,12,55,21.70
2017,07,15,12,56,21.70
2017,07,15,12,57,21.80
2017,07,15,12,58,21.80
2017,07,15,12,59,21.90
2017,07,15,13,00,21.90
2017,07,15,13,01,21.90
2017,07,15,13,02,21.80
2017,07,15,13,03,21.80
2017,07,15,13,04,21.80
2017,07,15,13,05,21.90
2017,07,15,13,06,22.00
2017,07,15,13,07,22.20
2017,07,15,13,08,22.30
2017,07,15,13,09,22.40
2017,07,15,13,10,22.50
2017,07,15,13,11,22.50
2017,07,15,13,12,22.50
2017,07,15,13,13,22.40
2017,07,15,13,14,22.30
2017,07,15,13,15,22.30
2017,07,15,13,16,22.30
2017,07,15,13,17,22.40
2017,07,15,13,18,22.50
2017,07,15,13,19,22.50
2017,07,15,13,20,22.60
2017,07,15,13,21,22.50
2017,07,15,13,22,22.40
2017,07,15,13,23,22.30
2017,07,15,13,24,22.30
2017,07,15,13,25,22.30
2017,07,15,13,26,22.40
2017,07,15,13,27,22.40
2017,07,15,13,28,22.50
2017,07,15,13,29,22.60
2017,07,15,13,30,22.60
2017,07,15,13,31,22.60
2017,07,15,13,32,22.60
2017,07,15,13,33,22.60
2017,07,15,13,34,22.60
2017,07,15,13,35,22.60
2017,07,15,13,36,22.70
2017,07,15,13,37,22.70
2017,07,15,13,38,22.70
2017,07,15,13,39,22.60
2017,07,15,13,40,22.50
2017,07,15,13,41,22.50
2017,07,15,13,42,22.50
2017,07,15,13,43,22.50
2017,07,15,13,44,22.50
2017,07,15,13,45,22.50
2017,07,15,13,46,22.60
2017,07,15,13,47,22.70
2017,07,15,13,48,22.70
2017,07,15,13,49,22.60
2017,07,15,13,50,22.60
2017,07,15,13,51,22.60
2017,07,15,13,52,22.50
2017,07,15,13,53,22.50
2017,07,15,13,54,22.40
2017,07,15,13,55,22.40
2017,07,15,13,56,22.40
2017,07,15,13,57,22.40
2017,07,15,13,58,22.40
2017,07,15,13,59,22.40
2017,07,15,14,00,22.40
2017,07,15,14,01,22.30
2017,07,15,14,02,22.30
2017,07,15,14,03,22.30
2017,07,15,14,04,22.20
2017,07,15,14,05,22.10
2017,07,15,14,06,22.10
2017,07,15,14,07,22.10
2017,07,15,14,08,22.10
2017,07,15,14,09,22.10
2017,07,15,14,10,22.20
2017,07,15,14,11,22.20
2017,07,15,14,12,22.20
2017,07,15,14,13,22.30
2017,07,15,14,14,22.30
2017,07,15,14,15,22.30
2017,07,15,14,16,22.30
2017,07,15,14,17,22.20
2017,07,15,14,18,22.10
2017,07,15,14,19,22.10
2017,07,15,14,20,22.00
2017,07,15,14,21,22.00
2017,07,15,14,22,22.00
2017,07,15,14,23,21.90
2017,07,15,14,24,21.90
2017,07,15,14,25,21.90
2017,07,15,14,26,21.90
2017,07,15,14,27,21.90
2017,07,15,14,28,21.90
2017,07,15,14,29,21.90
2017,07,15,14,30,21.80
2017,07,15,14,31,21.70
2017,07,15,14,32,21.70
2017,07,15,14,33,21.70
2017,07,15,14,34,21.70
2017,07,15,14,35,21.60
2017,07,15,14,36,21.50
2017,07,15,14,37,21.40
2017,07,15,14,38,21.30
2017,07,15,14,39,21.40
2017,07,15,14,40,21.40
2017,07,15,14,41,21.40
2017,07,15,14,42,21.40
2017,07,15,14,43,21.40
2017,07,15,14,44,21.40
2017,07,15,14,45,21.40
2017,07,15,14,46,21.40
2017,07,15,14,47,21.50
2017,07,15,14,48,21.50
2017,07,15,14,49,21.50
2017,07,15,14,50,21.60
2017,07,15,14,51,21.60
2017,07,15,14,52,21.60
2017,07,15,14,53,21.60
2017,07,15,14,54,21.60
2017,07,15,14,55,21.50
2017,07,15,14,56,21.40
2017,07,15,14,57,21.20
2017,07,15,14,58,21.10
2017,07,15,14,59,21.10
2017,07,15,15,00,21.10
2017,07,15,15,01,21.00
2017,07,15,15,02,21.00
2017,07,15,15,03,20.90
2017,07,15,15,04,20.90
2017,07,15,15,05,20.80
2017,07,15,15,06,20.80
2017,07,15,15,07,20.80
2017,07,15,15,08,20.90
2017,07,15,15,09,20.90
2017,07,15,15,10,21.00
2017,07,15,15,11,21.00
2017,07,15,15,12,21.10
2017,07,15,15,13,21.20
2017,07,15,15,14,21.30
2017,07,15,15,15,21.40
2017,07,15,15,16,21.50
2017,07,15,15,17,21.50
2017,07,15,15,18,21.40
2017,07,15,15,19,21.30
2017,07,15,15,20,21.20
2017,07,15,15,21,21.00
2017,07,15,15,22,21.00
2017,07,15,15,23,20.90
2017,07,15,15,24,20.90
2017,07,15,15,25,20.80
2017,07,15,15,26,20.80
2017,07,15,15,27,20.80
2017,07,15,15,28,20.70
2017,07,15,15,29,20.60
2017,07,15,15,30,20.60
2017,07,15,15,31,20.60
2017,07,15,15,32,20.60
2017,07,15,15,33,20.60
2017,07,15,15,34,20.70
2017,07,15,15,35,20.70
2017,07,15,15,36,20.80
2017,07,15,15,37,20.90
2017,07,15,15,38,20.90
2017,07,15,15,39,20.80
2017,07,15,15,40,20.80
2017,07,15,15,41,20.80
2017,07,15,15,42,20.80
2017,07,15,15,43,20.80
2017,07,15,15,44,20.80
2017,07,15,15,45,20.80
2017,07,15,15,46,20.80
2017,07,15,15,47,20.70
2017,07,15,15,48,20.70
2017,07,15,15,49,20.70
2017,07,15,15,50,20.80
2017,07,15,15,51,20.80
2017,07,15,15,52,20.80
2017,07,15,15,53,20.90
2017,07,15,15,54,20.80
2017,07,15,15,55,20.80
2017,07,15,15,56,20.90
2017,07,15,15,57,20.90
2017,07,15,15,58,20.90
2017,07,15,15,59,21.00
2017,07,15,16,00,21.00
2017,07,15,16,01,21.00
2017,07,15,16,02,21.00
2017,07,15,16,03,21.00
2017,07,15,16,04,20.90
2017,07,15,16,05,20.90
2017,07,15,16,06,20.90
2017,07,15,16,07,20.90
2017,07,15,16,08,20.80
2017,07,15,16,09,20.80
2017,07,15,16,10,20.80
2017,07,15,16,11,20.80
2017,07,15,16,12,20.80
2017,07,15,16,13,20.80
2017,07,15,16,14,20.80
2017,07,15,16,15,20.80
2017,07,15,16,16,20.70
2017,07,15,16,17,20.70
2017,07,15,16,18,20.60
2017,07,15,16,19,20.60
2017,07,15,16,20,20.50
2017,07,15,16,21,20.40
2017,07,15,16,22,20.30
2017,07,15,16,23,20.30
2017,07,15,16,24,20.30
2017,07,15,16,25,20.30
2017,07,15,16,26,20.30
2017,07,15,16,27,20.30
2017,07,15,16,28,20.30
2017,07,15,16,29,20.30
2017,07,15,16,30,20.40
2017,07,15,16,31,20.40
2017,07,15,16,32,20.40
2017,07,15,16,33,20.40
2017,07,15,16,34,20.40
2017,07,15,16,35,20.30
2017,07,15,16,36,20.20
2017,07,15,16,37,20.20
2017,07,15,16,38,20.00
2017,07,15,16,39,19.90
2017,07,15,16,40,19.90
2017,07,15,16,41,19.80
2017,07,15,16,42,19.70
2017,07,15,16,43,19.60
2017,07,15,16,44,19.60
2017,07,15,16,45,19.50
2017,07,15,16,46,19.50
2017,07,15,16,47,19.50
2017,07,15,16,48,19.40
2017,07,15,16,49,19.40
2017,07,15,16,50,19.40
2017,07,15,16,51,19.40
2017,07,15,16,52,19.40
2017,07,15,16,53,19.50
2017,07,15,16,54,19.50
2017,07,15,16,55,19.50
2017,07,15,16,56,19.50
2017,07,15,16,57,19.50
2017,07,15,16,58,19.60
2017,07,15,16,59,19.50
2017,07,15,17,00,19.50
2017,07,15,17,01,19.50
2017,07,15,17,02,19.50
2017,07,15,17,03,19.50
2017,07,15,17,04,19.50
2017,07,15,17,05,19.60
2017,07,15,17,06,19.60
2017,07,15,17,07,19.60
2017,07,15,17,08,19.60
2017,07,15,17,09,19.60
2017,07,15,17,10,19.60
2017,07,15,17,11,19.60
2017,07,15,17,12,19.60
2017,07,15,17,13,19.60
2017,07,15,17,14,19.70
2017,07,15,17,15,19.70
2017,07,15,17,16,19.60
2017,07,15,17,17,19.60
2017,07,15,17,18,19.50
2017,07,15,17,19,19.50
2017,07,15,17,20,19.50